カタログに戻る

DELTA 1 DEB

運用中SSO
NORAD 6214·DEBRIS·🇺🇸 United States

打ち上げ Feb 28, 1966 から Cape Canaveral Space Force Station

Loading…

次のパス (今後24時間)

TLE

最新Source: Space-Track

元期: Sep 14, 2026, 12:18 UTC

1 06214U 66016E   26257.51264740  .00000027  00000-0  39826-3 0  9993
2 06214 101.7677 257.8844 0119540 347.9228 163.6333 12.62822168786191

AllMySatでDELTA 1 DEBをリアルタイム追跡

Download on the App Store